www.pogodaiklimat.ru

Погода и климат >> Архив погоды >> Россия >> Астраханская область >> Астрахань


АРХИВ ПОГОДЫ в Астрахани

Время (UTC), дата Ветер
(напр.,м/с)
 
Видим.   Явления Облачность Т
(С)
Тd
(С)
f
(%)
Тe
(С)
Тes
(С)
Комфортность P
(гПа)
Po
(гПа)
Тmin
(С)
Tmax
(С)
R
(мм)
R24
(мм)
S
(см)
09 19.06 З 1 10 км в посл. час ливневой дождь 10/8 600 м
[Cb cap Ac As]
+23.6 +12.1 48 +25 +27 комфорт 1010.9 1013.3
12 19.06 ЮЗ 1 10 км {ливн. осадки} 9/4 600 м
[Cb cap Ac trans]
+25.4 +7.0 31 +25 +29 комфорт 1009.9 1012.3
15 19.06 Ю 1 10 км 9/8 600 м
[Cb cap Ac trans]
+24.7 +8.5 36 +25 +25 комфорт 1009.2 1011.6 +26.3 0.0
18 19.06 ЮЗ 1 10 км 5/3 600 м
[Cb cap Ac cast]
+19.1 +13.7 71 +21 +21 комфорт 1009.3 1011.8
21 19.06 Ю 1 10 км ясно +18.5 +14.4 77 +20 +20 по сезону 1009.0 1011.5
00 20.06 Ю 2 10 км 3/0
[Ac trans Cc]
+17.8 +14.2 79 +18 +18 по сезону 1008.7 1011.2
03 20.06 З 2 10 км 8/0
[Ac trans Ci fib]
+19.3 +14.4 73 +21 +23 комфорт 1008.3 1010.8 +16.8
06 20.06 СЗ 1 10 км 9/0
[Ci fib]
+25.4 +11.7 42 +27 +39 жарко 1007.6 1010.0
09 20.06 ЮЗ 2 10 км 9/3 1000 м
[Cu hum Cc]
+28.5 +9.7 31 +29 +39 жарко 1006.8 1009.2
12 20.06 Ю 3 10 км 9/3 1000 м
[Cu hum Ac trans Ci sp]
+27.9 +9.7 32 +28 +32 жарко 1006.1 1008.5
15 20.06 Ю 4 10 км 9/4 1000 м
[Sc diur, vesp Ac As Ci sp]
+24.5 +14.2 53 +27 +27 жарко 1006.4 1008.8 +28.6
18 20.06 З 3 10 км {ливн. осадки} 9/6 600 м
[Cb cap Ac As]
+21.9 +13.9 60 +25 +25 комфорт 1007.1 1009.6
21 20.06 З 2 10 км 10/6 1000 м
[Sc Ac As]
+21.7 +13.3 59 +24 +24 комфорт 1006.5 1008.9
00 21.06 З 2 10 км 9/4 1000 м
[Sc Ac As]
+20.7 +13.1 62 +24 +24 комфорт 1006.1 1008.5
03 21.06 Ю 2 10 км в посл. час ливневой дождь 9/8 600 м
[Cb cap Ac As Ci fib]
+19.8 +13.6 67 +22 +23 комфорт 1006.7 1009.2 +19.8 0.1
06 21.06 Ю 3 10 км {ливн. осадки} 9/5 600 м
[Cb cap Ac trans]
+21.8 +13.6 60 +25 +27 комфорт 1006.9 1009.3
09 21.06 Ю 3 10 км {ливн. осадки} 9/4 600 м
[Cb cap Ac trans]
+23.7 +14.6 57 +26 +31 жарко 1006.9 1009.4
12 21.06 Ю 4 10 км {ливн. осадки} 9/5 600 м
[Cb calv Ac trans]
+26.0 +13.9 47 +28 +30 жарко 1006.1 1008.5
15 21.06 Ю 2 10 км 9/3 600 м
[Cb calv Ac trans Ci fib]
+25.7 +14.4 50 +28 +29 жарко 1005.3 1007.7 +26.1
18 21.06 Ю 2 10 км 8/0
[Ac trans Ci fib]
+23.5 +13.6 54 +26 +26 жарко 1005.9 1008.3
21 21.06 ЮЗ 2 10 км 3/0
[Ci fib]
+21.4 +14.1 63 +24 +24 комфорт 1005.9 1008.3
00 22.06 Ю 2 10 км 9/0
[Ac trans Ci fib]
+20.9 +14.8 68 +25 +25 комфорт 1005.2 1007.6
03 22.06 З 2 10 км 8/0
[Ac trans Ci fib]
+20.1 +15.3 74 +23 +25 комфорт 1005.7 1008.1 +19.8
06 22.06 ЮЗ 2 10 км 8/0
[Ac trans Ci fib]
+26.3 +15.1 50 +29 +38 жарко 1006.0 1008.4
09 22.06 ЮЗ 3 10 км 5/5 600 м
[Cb cap Ac trans]
+30.2 +15.0 40 +33 +40 душно 1005.1 1007.5
12 22.06 ЮЗ 2
{12}
10 км гроза, ливневой дождь 9/9 1000 м
[Cb calv]
+24.6 +15.0 55 +27 +28 жарко 1004.6 1007.0
15 22.06 Ю 2 10 км гроза без осадков {ливн. осадки} 9/8 600 м
[Cb calv Ac trans]
+25.1 +15.6 56 +28 +28 жарко 1005.6 1008.0 +31.8 0.8
18 22.06 С 3
{13}
10 км в посл. час ливневой дождь {гроза} 9/9 600 м
[Cb cap]
+19.3 +16.1 82 +21 +21 комфорт 1007.8 1010.3
21 22.06 ЮЗ 3 4000 м дымка 3/0
[Cc]
+19.4 +17.0 86 +22 +22 комфорт 1008.5 1011.0
00 23.06 З 2 10 км 3/0
[]
+18.6 +15.7 83 +20 +20 по сезону 1008.7 1011.2
03 23.06 СЗ 2 10 км 8/3 600 м
[Cb cap Ac trans Ci fib]
+20.2 +15.2 73 +23 +24 комфорт 1010.4 1012.9 +17.6 0.3
06 23.06 СЗ 2 10 км 8/3 1000 м
[Cu hum Ac trans Cs]
+24.0 +10.9 44 +25 +31 комфорт 1012.2 1014.7
09 23.06 С 3 10 км 4/3 1000 м
[Cu hum Ci sp]
+27.0 +6.6 27 +26 +37 жарко 1012.5 1015.0
12 23.06 С 3 10 км 8/6 1000 м
[Cu hum Ci sp]
+26.6 +5.4 26 +26 +29 жарко 1011.7 1014.2
15 23.06 С 1 10 км 8/3 1000 м
[Sc diur, vesp Cc]
+26.8 +5.6 26 +26 +27 жарко 1011.7 1014.1 +28.0
18 23.06 ЮВ 1 10 км 4/3 1000 м
[Sc diur, vesp Ci fib]
+21.5 +8.4 43 +23 +23 комфорт 1012.8 1015.2
21 23.06 ЮВ 2 10 км ясно +18.8 +12.9 69 +20 +20 по сезону 1012.2 1014.7
00 24.06 ЮВ 2 10 км ясно +18.2 +15.0 82 +19 +19 по сезону 1011.0 1013.5
03 24.06 Ю 3 10 км 4/0
[Ac trans Ci fib]
+19.9 +15.3 75 +22 +24 комфорт 1010.9 1013.4 +17.9
06 24.06 Ю 3 10 км 8/0
[Ac trans Ci fib]
+24.7 +13.3 49 +27 +34 жарко 1010.4 1012.9
09 24.06 Ю 4
{10}
10 км 8/3 600 м
[Cb calv Ac trans Ci fib]
+28.6 +11.2 34 +29 +35 жарко 1009.5 1011.9
12 24.06 ЮВ 5-10
{10}
10 км 9/8 600 м
[Cb calv Ac trans]
+27.9 +11.8 37 +29 +30 жарко 1007.6 1010.0
15 24.06 ЮВ 5-10
{11}
10 км в посл. час ливневой дождь 9/9 600 м
[Cb calv]
+24.3 +14.7 55 +27 +27 жарко 1007.2 1009.6 +29.2
18 24.06 Ю 2
{10}
10 км слабый ливневой дождь 9/9 300 м
[Cb calv]
+22.0 +17.6 76 +27 +27 душно 1008.0 1010.4
21 24.06 ЮЗ 2 10 км {ливн. осадки} 9/6 600 м
[Cb calv Ac trans]
+22.0 +16.5 71 +26 +26 душно 1008.2 1010.7
00 25.06 З 1 4000 м дымка {ливн. осадки} 9/9 600 м
[Cb calv]
+19.0 +17.1 89 +22 +22 комфорт 1008.1 1010.5
03 25.06 СЗ 2 10 км слабый ливневой дождь 10/8 300 м
[Cb calv Ac As]
+17.7 +14.1 79 +18 +18 холодно 1010.5 1013.0 +17.7 0.3
06 25.06 С 2 10 км {ливн. осадки} 10/8 600 м
[Cb cap Ac As]
+16.7 +13.4 81 +17 +18 очень
холодно
1011.5 1014.0 +16.7
09 25.06 СЗ 2 4000 м слабый ливневой дождь 10/10 300 м
[Cb cap]
+15.0 +13.6 91 +15 +15 очень
холодно
1013.4 1015.9
12 25.06 З 2 10 км {ливн. осадки} 10/10 600 м
[Cb cap]
+17.6 +12.6 72 +18 +18 очень
холодно
1013.2 1015.7
15 25.06 СЗ 1 10 км 8/5 1000 м
[Cb cap Ac cast Ci fib]
+19.7 +9.7 52 +22 +23 комфорт 1014.1 1016.6 +20.0 12
18 25.06 ЮЗ 2 10 км ясно +17.6 +12.2 71 +18 +18 холодно 1015.6 1018.1
21 25.06 ЮЗ 2 10 км ясно +16.4 +12.8 79 +17 +17 прохладно 1016.8 1019.3
00 26.06 ЮЗ 2 10 км ясно +16.2 +12.5 79 +16 +16 прохладно 1017.4 1019.9
03 26.06 З 1 10 км ясно +17.4 +12.6 73 +18 +21 холодно 1017.9 1020.4 +15.2
06 26.06 ЮЗ 2 10 км ясно +24.1 +11.9 46 +26 +38 жарко 1018.6 1021.0

 

Местоположение метеостанции Астрахань (Астраханская область, Россия): широта 46.28 долгота 47.98 высота над уровнем моря -21 м.

В архиве по умолчанию представлена погода в Астрахани за последнюю неделю. Архивные данные за месяц целиком и за предыдущие месяцы, начиная с января 2011 года, Вы можете получить, выбрав интересующий диапазон дат из раскрывающегося списка и нажав кнопку "Ввод!".

Внимание! Время в таблицах - всемирное. Для получения местного времени необходимо прибавить поправку, которая в Астрахани равна 4 ч.

Смотрите также архив погоды в соседних городах и на ближайших метеорологических станциях:

Погода в Зеленге (Астраханская область, Россия) (50 км)
Погода в Досанге (Астраханская область, Россия) (71 км)
Погода в Лимане (Астраханская область, Россия) (79 км)
Погода в Ганюшкино (Атырауская область, Казахстан) (105 км)
Погода в Лагани (Калмыкия, Россия) (109 км)
Погода в Харабали (Астраханская область, Россия) (136 км)
Погода в Утте (Калмыкия, Россия) (151 км)
Погода в Юсте (Калмыкия, Россия) (158 км)
Погода в Исатай (Атырауская область, Казахстан) (170 км)
Погода в Артезиане (Калмыкия, Россия) (177 км)

Пояснения к столбцам:

Ветер - указаны скорость ветра в м/с - средняя за 10 мин, порывы в срок и между сроками (в фигурных скобках) и направление, откуда дует ветер: С - северный, СВ - северо-восточный, В - восточный, ЮВ - юго-восточный, Ю - южный, ЮЗ - юго-западный, З - западный, СЗ - северо-западный.
Видимость - горизонтальная дальность видимости в метрах или километрах. При видимости от 1 до 10 км при отсутствии осадков обычно наблюдается дымка, при ухудшении видимости до 1 км и менее - туман. В сухую погоду видимость может ухудшаться дымом, пылью или мглою.
Явления - указаны атмосферные явления, наблюдавшиеся в срок или в последний час перед сроком; фигурными скобками обозначены явления, наблюдавшиеся между сроками (за 1-3 часа до срока); квадратными скобками обозначены град или гололедные отложения с указанием их диаметра в мм.
Облачность - указаны через наклонную черту общая и нижняя облачность в баллах и высота нижней границы облаков в метрах; квадратными скобками обозначены формы облаков: Ci - перистые, Cs - перисто-слоистые, Cc - перисто-кучевые, Ac - высококучевые, As - высокослоистые, Sc - слоисто-кучевые, Ns - слоисто-дождевые, Cu - кучевые, Cb - кучево-дождевые. Подробнее классификацию облаков см. в Атласе облаков (PDF).
T - Температура воздуха - температура, измеренная на высоте 2 м над землей.
Td - Температура точки росы - температура, при понижении до которой содержащийся в воздухе водяной пар достигнет насыщения.
f - Относительная влажность воздуха - влажноcть воздуха, измеренная на высоте 2 м над землей.
Te - Эффективная температура - температура, которую ощущает одетый по сезону человек в тени. Характеристика душности погоды. При расчете учитывается влияние влажности воздуха и скорости ветра на теплоощущения человека.
Tes - Эффективная температура на солнце - температура, которую ощущает человек, с поправкой на солнечный нагрев. Характеристика знойности погоды. Зависит от высоты солнца над горизонтом, облачности и скорости ветра. Ночью, в пасмурную погоду, а также при ветре 12 м/с и более поправка равна нулю.
P - Атмосферное давление - приведенное к уровню моря атмосферное давление.
Po - Атмосферное давление - измеренное на уровне метеостанции атмосферное давление.
Tmin - Минимальная температура - минимум температуры воздуха на высоте 2 м над землей.
Tmax - Максимальная температура - максимум температуры воздуха на высоте 2 м над землей.
R - Количество осадков - Количество выпавших осадков за период времени, мм. При наведении курсора мыши на число - период времени, за который выпало указанное количество осадков.
R24 - Количество осадков - Количество выпавших осадков за 24 часа, мм.
S - Снежный покров - Высота снежного покрова, см. При наведении курсора мыши на число - состояние снежного покрова и степень покрытия местности в баллах.